When you browse on this site, cookies collect data to enhance your experience and personalize the content and advertising you see.
Visit our Privacy Policy to learn more. By continuing to use the site, you agree to this use of cookies and data.
  • In Czech Republic
  • List of Countries
  • For 7 days
  • Water Temperature
  • Weather Map
  • Weather Widgets
  • user-avatar
    Login

    Hourly Weather Bonn

    Today, 23 February, Sunday

    Time Temperature Precipitation Wind Pressure Humidity
    00:00 +9°C° 0.1 mm 6 mps 760 mmHg 79%
    01:00 +9°C° 0.1 mm 6 mps 759 mmHg 80%
    02:00 +9°C° 0.1 mm 6 mps 759 mmHg 80%
    03:00 +8°C° 0.1 mm 5 mps 758 mmHg 80%
    04:00 +8°C° 0.6 mm 5 mps 758 mmHg 82%
    05:00 +8°C° 0.6 mm 5 mps 757 mmHg 85%
    06:00 +8°C° 0.6 mm 5 mps 757 mmHg 87%
    07:00 +9°C° 1.5 mm 5 mps 756 mmHg 87%
    08:00 +10°C° 1.5 mm 6 mps 755 mmHg 87%
    09:00 +11°C° 1.5 mm 7 mps 754 mmHg 87%
    10:00 +12°C° 0.4 mm 8 mps 753 mmHg 82%
    11:00 +13°C° 0.4 mm 9 mps 753 mmHg 77%
    12:00 +14°C° 0.4 mm 11 mps 753 mmHg 72%
    13:00 +13°C° 0.7 mm 11 mps 753 mmHg 75%
    14:00 +13°C° 0.7 mm 10 mps 752 mmHg 78%
    15:00 +12°C° 0.7 mm 10 mps 752 mmHg 82%
    16:00 +11°C° 1.3 mm 10 mps 753 mmHg 82%
    17:00 +10°C° 1.3 mm 9 mps 754 mmHg 82%
    18:00 +9°C° 1.3 mm 8 mps 755 mmHg 83%
    19:00 +8°C° 0.3 mm 7 mps 757 mmHg 78%
    20:00 +5°C° 0.3 mm 6 mps 758 mmHg 74%
    21:00 +5°C° 0.3 mm 5 mps 759 mmHg 69%
    22:00 +4°C° 0 mm 4 mps 760 mmHg 71%
    23:00 +4°C° 0 mm 3 mps 761 mmHg 73%

    Tomorrow, 24 February, Monday

    Time Temperature Precipitation Wind Pressure Humidity
    00:00 +3°C° 0 mm 3 mps 761 mmHg 75%
    01:00 +4°C° 0 mm 2 mps 761 mmHg 77%
    02:00 +4°C° 0 mm 2 mps 761 mmHg 79%
    03:00 +4°C° 0 mm 1 mps 761 mmHg 80%
    04:00 +4°C° 0 mm 1 mps 761 mmHg 80%
    05:00 +4°C° 0 mm 2 mps 761 mmHg 80%
    06:00 +4°C° 0 mm 2 mps 760 mmHg 80%
    07:00 +4°C° 0.1 mm 2 mps 760 mmHg 81%
    08:00 +3°C° 0.1 mm 3 mps 759 mmHg 83%
    09:00 +4°C° 0.1 mm 3 mps 758 mmHg 84%
    10:00 +5°C° 0.1 mm 4 mps 757 mmHg 85%
    11:00 +7°C° 0.1 mm 4 mps 756 mmHg 85%
    12:00 +8°C° 0.1 mm 5 mps 755 mmHg 86%
    13:00 +9°C° 0 mm 5 mps 754 mmHg 84%
    14:00 +10°C° 0 mm 5 mps 752 mmHg 83%
    15:00 +11°C° 0 mm 6 mps 751 mmHg 81%
    16:00 +10°C° 0 mm 6 mps 751 mmHg 81%
    17:00 +10°C° 0 mm 5 mps 750 mmHg 81%
    18:00 +10°C° 0 mm 5 mps 749 mmHg 81%
    19:00 +10°C° 0 mm 6 mps 749 mmHg 80%
    20:00 +10°C° 0 mm 6 mps 748 mmHg 79%
    21:00 +9°C° 0 mm 6 mps 748 mmHg 77%
    22:00 +9°C° 0.2 mm 6 mps 748 mmHg 78%
    23:00 +9°C° 0.2 mm 6 mps 747 mmHg 79%

    Day after tomorrow, 25 February, Tuesday

    Time Temperature Precipitation Wind Pressure Humidity
    00:00 +9°C° 0.2 mm 6 mps 747 mmHg 80%
    01:00 +9°C° 0.1 mm 6 mps 747 mmHg 79%
    02:00 +8°C° 0.1 mm 5 mps 747 mmHg 79%
    03:00 +7°C° 0.1 mm 5 mps 746 mmHg 79%
    04:00 +7°C° 0 mm 5 mps 746 mmHg 78%
    05:00 +6°C° 0 mm 5 mps 746 mmHg 77%
    06:00 +5°C° 0 mm 5 mps 746 mmHg 76%
    07:00 +5°C° 0 mm 5 mps 746 mmHg 73%
    08:00 +4°C° 0 mm 6 mps 746 mmHg 69%
    09:00 +4°C° 0 mm 6 mps 746 mmHg 66%
    10:00 +5°C° 0 mm 7 mps 746 mmHg 62%
    11:00 +6°C° 0 mm 7 mps 746 mmHg 58%
    12:00 +8°C° 0 mm 7 mps 746 mmHg 54%
    13:00 +8°C° 0.1 mm 7 mps 745 mmHg 56%
    14:00 +6°C° 0.1 mm 7 mps 745 mmHg 58%
    15:00 +6°C° 0.1 mm 7 mps 744 mmHg 60%
    16:00 +5°C° 0.2 mm 6 mps 744 mmHg 66%
    17:00 +5°C° 0.2 mm 5 mps 744 mmHg 72%
    18:00 +5°C° 0.2 mm 4 mps 743 mmHg 78%
    19:00 +4°C° 0.8 mm 4 mps 743 mmHg 81%
    20:00 +4°C° 0.8 mm 4 mps 742 mmHg 85%
    21:00 +3°C° 0.8 mm 4 mps 742 mmHg 88%
    22:00 +3°C° 0.5 mm 3 mps 741 mmHg 89%
    23:00 +3°C° 0.5 mm 3 mps 740 mmHg 90%

    26 February, Wednesday

    Time Temperature Precipitation Wind Pressure Humidity
    00:00 +3°C° 0.5 mm 3 mps 739 mmHg 91%
    01:00 +3°C° 0.7 mm 4 mps 739 mmHg 87%
    02:00 +1°C° 0.7 mm 5 mps 738 mmHg 83%
    03:00 +1°C° 0.7 mm 6 mps 738 mmHg 79%
    04:00 -1°C° 0 mm 6 mps 738 mmHg 78%
    05:00 -1°C° 0 mm 6 mps 738 mmHg 78%
    06:00 -2°C° 0 mm 6 mps 738 mmHg 78%
    07:00 -1°C° 0 mm 6 mps 738 mmHg 76%
    08:00 -1°C° 0 mm 6 mps 739 mmHg 75%
    09:00 -1°C° 0 mm 7 mps 739 mmHg 73%
    10:00 +1°C° 0.2 mm 6 mps 740 mmHg 75%
    11:00 +2°C° 0.2 mm 5 mps 741 mmHg 77%
    12:00 +2°C° 0.2 mm 5 mps 742 mmHg 79%
    13:00 +3°C° 0.2 mm 5 mps 743 mmHg 76%
    14:00 +3°C° 0.2 mm 6 mps 744 mmHg 73%
    15:00 +4°C° 0.2 mm 6 mps 744 mmHg 70%
    16:00 +3°C° 0.3 mm 6 mps 745 mmHg 74%
    17:00 +2°C° 0.3 mm 5 mps 746 mmHg 77%
    18:00 +1°C° 0.3 mm 5 mps 747 mmHg 81%
    19:00 +1°C° 0.1 mm 5 mps 748 mmHg 81%
    20:00 +1°C° 0.1 mm 4 mps 749 mmHg 81%
    21:00 0°C° 0.1 mm 4 mps 750 mmHg 81%
    22:00 0°C° 0 mm 4 mps 750 mmHg 83%
    23:00 0°C° 0 mm 4 mps 750 mmHg 85%

    27 February, Thursday

    Time Temperature Precipitation Wind Pressure Humidity
    00:00 0°C° 0 mm 3 mps 751 mmHg 87%
    01:00 0°C° 0 mm 3 mps 751 mmHg 87%
    02:00 0°C° 0 mm 3 mps 751 mmHg 88%
    03:00 0°C° 0 mm 3 mps 752 mmHg 88%
    04:00 0°C° 0 mm 3 mps 752 mmHg 88%
    05:00 0°C° 0 mm 3 mps 752 mmHg 88%
    06:00 0°C° 0 mm 3 mps 753 mmHg 87%
    07:00 +1°C° 0 mm 3 mps 753 mmHg 81%
    08:00 +1°C° 0 mm 4 mps 753 mmHg 76%
    09:00 +3°C° 0 mm 4 mps 753 mmHg 70%
    10:00 +3°C° 0 mm 4 mps 752 mmHg 69%
    11:00 +3°C° 0 mm 5 mps 752 mmHg 69%
    12:00 +3°C° 0 mm 6 mps 751 mmHg 68%
    13:00 +3°C° 0.4 mm 6 mps 750 mmHg 75%
    14:00 +2°C° 0.4 mm 7 mps 749 mmHg 81%
    15:00 +2°C° 0.4 mm 7 mps 748 mmHg 88%
    16:00 +2°C° 1.1 mm 7 mps 747 mmHg 88%
    17:00 +3°C° 1.1 mm 6 mps 746 mmHg 87%
    18:00 +3°C° 1.1 mm 6 mps 745 mmHg 87%
    19:00 +5°C° 0.1 mm 5 mps 745 mmHg 88%
    20:00 +6°C° 0.1 mm 5 mps 745 mmHg 88%
    21:00 +7°C° 0.1 mm 4 mps 744 mmHg 89%
    22:00 +7°C° 0.1 mm 4 mps 745 mmHg 89%
    23:00 +7°C° 0.1 mm 4 mps 745 mmHg 89%

    28 February, Friday

    Time Temperature Precipitation Wind Pressure Humidity
    00:00 +7°C° 0.1 mm 4 mps 745 mmHg 88%
    01:00 +7°C° 0.1 mm 4 mps 745 mmHg 89%
    02:00 +8°C° 0.1 mm 3 mps 745 mmHg 90%
    03:00 +7°C° 0.1 mm 3 mps 745 mmHg 91%
    04:00 +7°C° 0.8 mm 3 mps 746 mmHg 91%
    05:00 +7°C° 0.8 mm 3 mps 746 mmHg 92%
    06:00 +7°C° 0.8 mm 3 mps 746 mmHg 93%
    07:00 +8°C° 0.9 mm 3 mps 746 mmHg 93%
    08:00 +8°C° 0.9 mm 3 mps 747 mmHg 92%
    09:00 +8°C° 0.9 mm 3 mps 747 mmHg 92%
    10:00 +8°C° 0.5 mm 4 mps 747 mmHg 90%
    11:00 +8°C° 0.5 mm 4 mps 747 mmHg 89%
    12:00 +8°C° 0.5 mm 4 mps 746 mmHg 88%
    13:00 +10°C° 0.2 mm 4 mps 746 mmHg 87%
    14:00 +10°C° 0.2 mm 4 mps 745 mmHg 85%
    15:00 +9°C° 0.2 mm 5 mps 745 mmHg 84%
    16:00 +9°C° 0.2 mm 5 mps 744 mmHg 84%
    17:00 +9°C° 0.2 mm 5 mps 744 mmHg 83%
    18:00 +9°C° 0.2 mm 5 mps 744 mmHg 83%
    19:00 +9°C° 0 mm 5 mps 743 mmHg 83%
    20:00 +8°C° 0 mm 4 mps 743 mmHg 82%
    21:00 +8°C° 0 mm 4 mps 742 mmHg 82%
    22:00 +8°C° 0 mm 4 mps 742 mmHg 82%
    23:00 +8°C° 0 mm 4 mps 741 mmHg 82%
    Show more